Vertical_Velocity
10 15 15 12 5 4 8 16 15 14 13 15 16 14 10 5 7 13 19 18 15 15 18 22 25 26 24 17 10 9 10 10 8 7 6 6 5 5 5 4 2 3 9 23 25 16 5 3 2 -0 -1 -2 -2 -3 -3 -2 -2 -1 -1 -0 -1 -1 -0 0 -1 -1 -0 0 1
-3 -2 -0 -0 -2 -2 2 10 9 8 6 6 7 5 3 0 4 13 22 26 22 21 24 30 30 27 20 12 9 7 6 7 7 6 5 4 4 4 3 1 2 4 6 8 8 5 2 0 -1 -2 -2 -2 -2 -3 -3 -2 -1 -1 -1 -0 -0 -1 -0 -0 -1 -1 -0 0 1
-2 -3 -3 -4 -4 -3 -3 -1 3 4 4 3 2 0 -1 -2 -0 5 15 27 33 35 34 32 26 18 11 9 9 8 8 8 8 7 5 3 1 1 2 7 13 14 9 2 1 0 -0 -1 -2 -2 -3 -2 -2 -3 -3 -2 -1 -0 -1 -1 -1 -1 -1 -1 -1 -0 0 1 2
-2 -2 -2 -2 -3 -3 -4 -5 -2 -0 2 2 1 -0 -1 -2 -1 3 12 28 38 36 27 16 9 5 4 7 8 8 7 6 5 4 2 1 3 10 19 25 15 8 3 0 -1 -1 -1 -1 -2 -2 -2 -2 -2 -2 -2 -2 -1 -1 -1 -1 -1 -1 -1 -1 -1 0 1 1 2
-3 -2 -1 -1 -2 -3 -3 -3 -3 -2 -1 0 -0 -1 -2 -3 -2 1 4 9 15 15 12 7 3 2 2 3 4 6 7 6 1 0 1 3 7 10 11 9 5 2 1 0 -1 -1 -2 -2 -2 -2 -2 -2 -2 -2 -2 -2 -2 -2 -2 -1 -1 -1 -1 -1 -1 -0 0 -0 1
-2 -1 -1 -0 -0 -1 -1 -2 -2 -2 -2 -1 -2 -2 -3 -4 -4 -2 -0 2 2 2 2 2 2 1 1 1 3 5 8 10 7 2 0 3 4 4 2 -0 0 1 1 1 0 -1 -2 -3 -3 -3 -3 -2 -3 -3 -2 -1 -2 -2 -2 -1 -2 -1 0 -0 0 0 0 -1 1
0 0 -0 -0 1 1 0 -1 -1 -1 -1 -1 -2 -2 -3 -4 -5 -5 -4 -2 0 1 1 1 1 1 2 5 9 10 10 10 6 5 6 7 3 2 1 0 0 0 0 0 -0 -2 -3 -4 -5 -5 -4 -3 -4 -4 -3 -1 -2 -2 -2 -2 -2 -1 0 -1 1 1 1 -1 0
2 1 0 0 1 1 1 0 -0 -1 -1 -0 -1 -2 -3 -4 -6 -6 -5 -3 -1 1 2 3 2 2 3 5 7 9 10 11 11 11 8 3 1 1 1 1 0 -0 -1 -2 -3 -4 -4 -4 -4 -5 -5 -3 -4 -4 -3 -2 -2 -2 -2 -2 -2 -1 1 0 1 2 2 1 0
2 2 2 2 1 1 1 1 0 -0 -1 -0 -0 -1 -2 -2 -4 -4 -4 -3 -2 1 3 4 3 3 3 3 6 6 6 6 6 5 4 3 2 1 1 1 -0 -2 -3 -3 -4 -5 -5 -3 -4 -4 -4 -3 -4 -4 -3 -2 -3 -2 -2 -1 -2 -1 0 2 1 1 1 2 1
1 2 3 2 2 2 2 1 1 1 1 0 0 0 -0 -1 -1 -1 -1 -2 -1 1 2 2 4 3 3 2 4 4 3 3 3 3 2 2 2 1 1 1 -0 -2 -3 -3 -3 -3 -4 -3 -4 -4 -4 -3 -3 -4 -4 -2 -2 -2 -2 -0 -0 -1 -1 1 2 1 0 1 1
-0 1 1 1 1 2 2 1 0 1 1 0 -0 0 0 -0 0 0 0 1 1 0 0 2 3 2 1 2 2 1 1 1 1 1 0 -0 0 0 0 -0 -1 -2 -2 -2 -2 -2 -2 -3 -3 -3 -4 -3 -3 -3 -3 -2 -1 -1 -2 -0 1 0 -1 -0 2 1 0 0 1
-1 -1 -0 -0 0 0 0 -1 -0 -0 0 -1 -1 -0 -0 -1 -0 0 1 2 1 1 1 3 2 1 1 3 2 1 1 2 1 0 -1 -1 -1 -1 -1 -1 -1 -2 -3 -3 -2 -2 -3 -3 -3 -3 -4 -4 -2 -2 -2 -2 -0 -0 -1 -0 1 1 0 -1 1 1 0 0 0
0 -0 -0 -0 -0 -1 -1 -1 -1 -1 -1 -2 -1 -1 -1 -1 -0 1 1 1 1 2 2 2 2 2 2 3 2 2 2 2 2 1 0 -1 -1 -1 -2 -2 -1 -2 -3 -3 -2 -2 -3 -4 -3 -3 -3 -3 -1 -1 -1 -1 -0 0 0 0 1 1 0 -1 -0 -0 0 0 0
1 1 1 1 0 -0 -1 -1 -1 -1 -2 -2 -2 -1 -1 -1 -0 1 2 1 2 3 3 2 2 2 2 2 1 1 1 2 2 1 0 -0 -0 -1 -1 -2 -1 -2 -3 -3 -3 -3 -4 -4 -3 -2 -2 -2 -1 -1 -1 -1 -1 -1 -0 0 -0 -0 -0 -0 -0 0 1 1 1
2 1 2 2 1 -0 -0 0 -1 -1 -1 -2 -2 -1 -0 -1 0 1 2 1 2 3 3 2 2 2 3 2 1 1 1 1 0 0 0 1 1 0 -1 -1 -1 -2 -2 -4 -4 -4 -4 -4 -3 -3 -2 -2 -2 -2 -1 -2 -2 -1 -1 0 0 1 1 1 1 1 1 2 2
1 2 2 2 0 -0 0 0 -0 -1 -1 -2 -1 0 0 -1 1 2 2 1 3 4 4 2 2 3 3 2 1 1 1 1 0 0 -0 0 0 0 -1 -2 -2 -2 -3 -4 -4 -4 -4 -4 -3 -3 -2 -1 -1 -0 -0 -0 0 1 1 2 2 2 2 2 2 1 1 1 2
1 1 1 1 -1 -1 -0 -0 -1 -1 -1 -1 0 1 1 -0 2 2 2 1 3 3 3 1 2 3 3 0 2 2 1 -1 0 0 0 -0 -0 -1 -1 -2 -2 -2 -2 -3 -3 -3 -2 -2 -2 -1 0 1 2 3 3 3 3 3 3 3 3 2 2 2 1 1 0 0 0
-1 -0 0 -0 -1 -1 -1 -1 -1 -1 -1 -0 1 1 1 1 2 2 1 2 2 2 1 0 2 2 1 -0 1 1 1 -1 -1 -0 0 -1 -1 -1 -1 -2 -1 -1 -0 -0 -0 0 0 1 1 2 3 4 4 4 4 4 3 2 2 1 1 1 1 1 0 0 -0 -0 -0
-1 -1 -1 -2 -2 -2 -1 -1 -1 -1 -1 -0 0 0 0 1 1 1 1 0 1 1 1 -0 1 1 0 -1 -0 0 0 -1 -1 -1 -0 -0 -1 -1 -1 -0 -0 0 0 0 1 1 2 2 2 3 3 4 4 4 3 2 1 0 0 -0 -1 -1 -0 0 0 0 0 -0 -0
-1 -2 -3 -3 -3 -2 -2 -1 -1 -1 -1 -0 0 0 0 1 1 1 -0 -1 0 1 0 -1 -0 -0 -1 -1 -0 -0 -0 0 -0 -1 -1 -0 -1 -1 -1 -0 -0 -1 -1 -0 0 0 1 1 1 1 2 2 2 2 2 1 -0 -1 -1 -1 -1 -1 -1 0 0 0 0 -0 -0
-1 -3 -3 -2 -2 -1 -1 -1 -1 -1 -1 -1 -0 0 0 1 1 0 -1 -1 0 0 -1 -2 -0 0 -0 -1 -1 -1 -0 1 0 -1 -2 -0 -1 -2 -2 -0 -1 -1 -1 -0 0 0 1 1 1 0 0 1 1 1 0 0 -0 -0 -0 0 -0 -0 -0 0 0 -0 -0 -0 -0
-2 -2 -2 -1 -0 -0 -0 -0 -0 -1 -1 -1 -0 0 0 1 0 -0 -1 -0 0 -0 -1 -1 0 0 -0 -1 -1 -0 0 1 0 -1 -1 -0 -1 -1 -1 0 -1 -1 -0 0 1 1 1 1 1 1 0 -0 -0 0 0 0 0 0 1 1 1 0 -0 -0 -0 -1 -1 -1 -0
-1 -2 -1 0 1 1 0 0 0 0 -0 0 1 1 1 0 0 0 0 0 -0 -0 -1 -0 0 -0 -0 -0 0 0 0 1 0 0 -0 0 -0 -0 -0 1 0 -0 -0 1 1 1 1 1 1 1 0 -0 -0 0 1 1 1 1 1 2 1 1 -0 -1 -1 -1 -1 -1 -1
-1 -1 -0 1 1 1 0 0 0 0 0 1 1 1 1 0 0 1 0 -0 -0 -0 0 -0 0 0 0 1 1 1 1 1 1 1 1 1 0 0 0 1 1 0 0 1 1 1 1 1 1 1 1 1 0 0 1 1 1 1 1 1 1 0 -0 -1 -1 -1 -2 -2 -1
-1 -1 -0 0 0 0 0 0 -0 -0 -0 0 1 1 0 0 0 0 0 -0 0 0 1 0 0 1 1 2 2 2 2 1 1 1 1 1 1 1 1 1 1 1 1 2 1 1 1 1 1 1 1 1 0 0 0 1 1 1 1 1 1 1 0 -0 -1 -1 -1 -2 -2
-1 -1 -1 -1 -1 -0 -0 -0 -1 -1 -0 0 0 0 -0 -0 0 0 -0 -0 0 1 1 1 1 1 2 2 2 2 2 2 1 1 1 1 1 1 1 1 1 1 2 2 1 1 1 1 1 1 1 0 1 0 0 0 0 0 0 -0 0 1 0 -0 -0 -1 -1 -1 -1
-1 -1 -2 -2 -1 -1 -1 -1 -0 -1 -1 -0 -0 -1 -1 -0 0 0 0 0 1 2 2 1 1 1 2 2 2 1 1 2 1 1 0 0 1 1 1 1 1 1 1 1 1 1 1 1 0 0 0 0 0 1 0 -0 -0 -0 -1 -1 -1 -1 -0 -1 -1 -1 -1 -1 -1
-0 -1 -2 -1 -0 -1 -1 0 -0 -1 -2 -1 -1 -1 -1 0 0 1 1 1 2 2 1 0 1 1 2 2 1 1 1 1 0 -0 -0 0 0 0 0 1 1 1 1 1 1 1 1 0 -0 -0 -0 -0 0 0 0 -0 -1 -1 -1 -2 -2 -2 -1 -1 -1 -1 -1 -1 -1
-0 -1 -1 0 0 1 1 1 -1 -2 -3 -2 -2 -2 -1 -0 0 1 1 1 1 1 0 -0 1 1 2 1 1 2 1 -0 -1 -0 0 0 0 0 0 1 1 1 1 1 1 0 0 0 -1 -1 -1 -1 -0 -0 -0 -0 -1 -1 -2 -2 -2 -2 -2 -2 -1 -1 -1 -1 -0
-1 -0 -0 0 1 2 3 2 -0 -1 -2 -2 -2 -2 -1 0 1 1 1 1 0 -0 -0 0 1 1 1 1 2 1 0 -1 -0 0 0 -0 0 0 1 1 0 0 1 1 1 0 0 -0 -1 -2 -2 -1 -1 -1 -1 -1 -1 -1 -2 -2 -2 -2 -2 -1 -1 -1 -1 -1 -0
-1 -1 -1 0 2 2 3 2 1 0 -1 -1 -1 -1 -0 1 1 1 1 1 -0 -1 -0 1 1 0 1 2 2 0 -1 -0 1 1 0 -0 0 0 1 1 -0 -0 0 1 1 0 -0 -1 -2 -2 -2 -2 -1 -1 -1 -1 -1 -1 -1 -1 -1 -1 -1 -1 -1 -1 -1 -0 -1
-1 -1 -1 -0 1 1 2 2 2 1 1 1 1 1 1 2 1 1 1 1 0 0 0 1 0 0 0 1 1 0 0 1 1 0 -0 -0 -0 0 0 0 -1 -1 -0 1 1 0 -1 -1 -2 -2 -2 -2 -2 -2 -2 -1 -1 -1 -1 -1 -1 -1 -1 -1 -0 -0 -0 -0 -1
-1 -1 -1 -0 -0 0 1 2 2 2 3 3 2 2 2 2 2 2 2 1 1 1 0 -0 0 0 0 1 1 1 1 1 0 -0 -1 -1 0 0 0 -0 -1 -1 -0 1 1 0 -1 -2 -2 -3 -2 -2 -2 -2 -2 -1 -1 -1 -1 -1 -1 -0 -0 -0 -0 -0 -0 -1 -1
-0 -0 -1 -1 -1 -0 0 1 2 3 4 4 3 3 3 2 2 2 2 1 1 -0 -0 -0 1 1 1 1 2 2 1 0 -0 -1 -1 -0 1 1 0 -1 -2 -1 -0 1 1 0 -1 -2 -3 -3 -2 -2 -2 -2 -2 -2 -1 -1 -1 -1 -1 -0 -0 -0 -0 -0 -0 -1 -1
1 0 -1 -1 -1 -1 -0 0 2 4 5 5 5 4 3 2 2 1 1 0 0 -0 -0 1 1 2 1 2 2 2 1 -0 -1 -1 -0 1 2 1 -0 -2 -2 -1 0 1 1 0 -1 -2 -3 -3 -2 -2 -2 -2 -2 -1 -1 -1 -1 -1 -1 -1 -0 -0 -0 -1 -1 -1 -1
2 1 -0 -1 -1 -1 -1 -0 1 3 5 6 6 5 3 1 1 0 0 1 0 0 1 1 2 2 1 2 2 1 0 -1 -0 -0 0 2 2 1 -1 -3 -3 -2 0 2 1 0 -1 -2 -3 -2 -2 -2 -2 -2 -2 -1 -1 -1 -1 -1 -1 -1 -1 -0 -1 -1 -1 -1 -1
3 2 1 -0 -1 -1 -1 -1 1 3 4 6 6 4 2 1 0 0 0 1 1 0 0 2 2 1 1 1 1 -0 -1 -0 1 1 1 1 1 -0 -2 -3 -2 -1 0 2 2 1 -1 -2 -2 -2 -2 -2 -2 -2 -2 -1 -1 -1 -1 -1 -1 -1 -1 -1 -1 -1 -1 -1 -1
4 3 2 1 -0 -1 -2 -1 1 2 4 5 5 4 2 2 1 1 0 1 1 0 0 2 1 1 1 1 -0 -1 -1 1 1 1 1 0 -0 -1 -2 -2 -2 -1 0 2 2 1 -1 -2 -3 -2 -2 -1 -2 -2 -2 -1 -1 -1 -1 -1 -1 -1 -1 -1 -1 -1 -1 -1 -1
4 4 3 2 1 -1 -1 -1 -0 1 3 4 4 4 3 4 2 1 0 1 0 1 1 2 1 0 0 0 -1 -1 -0 1 1 1 0 -0 -1 -1 -1 -1 -2 -1 0 2 2 1 -1 -2 -3 -3 -2 -2 -2 -2 -1 -1 -1 -1 -1 -1 -1 -1 -1 -1 -1 -1 -1 -1 -1
4 4 4 3 2 0 -1 -1 -1 0 1 3 3 4 4 4 3 2 1 1 1 1 2 2 1 0 -0 -1 -1 -1 0 1 0 0 -0 -1 -2 -1 -1 -1 -1 -0 0 2 2 1 -0 -2 -3 -3 -2 -2 -1 -1 -1 -0 -1 -1 -1 -1 -1 -1 -2 -2 -1 -1 -1 -1 -1
4 4 4 4 3 1 0 -1 -1 -0 1 2 3 3 4 4 3 2 2 2 2 1 1 1 0 -0 -1 -1 -1 -0 0 0 -0 -1 -1 -2 -1 -1 -0 -0 -0 -0 0 2 2 1 -0 -2 -3 -3 -2 -2 -1 -1 -0 0 0 -1 -2 -2 -1 -1 -1 -2 -2 -2 -1 -1 -1
Height
5752 5750 5750 5751 5753 5755 5757 5758 5757 5757 5758 5758 5759 5759 5759 5759 5761 5763 5763 5763 5761 5761 5762 5763 5763 5762 5760 5757 5758 5759 5759 5759 5758 5758 5758 5758 5758 5759 5760 5760 5761 5761 5762 5764 5759 5758 5760 5760 5760 5759 5759 5759 5759 5759 5759 5759 5759 5759 5758 5758 5758 5758 5758 5758 5757 5757 5757 5757 5756
5752 5751 5751 5751 5752 5753 5754 5753 5753 5753 5753 5753 5754 5754 5755 5756 5757 5758 5760 5761 5759 5759 5758 5759 5759 5758 5756 5755 5755 5756 5757 5756 5756 5755 5755 5756 5756 5757 5757 5758 5758 5758 5759 5758 5757 5757 5757 5757 5756 5756 5756 5756 5756 5756 5756 5756 5756 5756 5755 5755 5755 5755 5755 5754 5754 5754 5754 5753 5753
5750 5750 5750 5750 5750 5750 5750 5750 5750 5750 5750 5750 5751 5752 5753 5753 5753 5753 5754 5755 5755 5755 5754 5754 5753 5752 5752 5753 5753 5754 5754 5754 5754 5753 5753 5753 5753 5754 5754 5754 5755 5755 5755 5754 5754 5754 5754 5753 5753 5753 5753 5753 5753 5753 5753 5753 5753 5753 5753 5752 5752 5752 5751 5751 5751 5751 5750 5750 5750
5747 5747 5747 5747 5747 5746 5746 5747 5747 5747 5747 5747 5748 5748 5749 5750 5751 5751 5751 5752 5752 5751 5749 5747 5746 5747 5748 5749 5750 5751 5751 5751 5751 5751 5751 5751 5751 5751 5751 5752 5751 5751 5751 5751 5751 5751 5751 5750 5750 5750 5750 5750 5750 5750 5750 5750 5750 5750 5749 5749 5748 5748 5748 5748 5747 5747 5747 5747 5746
5743 5743 5743 5743 5743 5743 5743 5743 5743 5743 5743 5743 5744 5745 5746 5747 5747 5747 5747 5746 5745 5744 5744 5743 5743 5743 5744 5745 5746 5746 5747 5747 5747 5747 5747 5748 5748 5748 5748 5747 5747 5748 5748 5748 5748 5747 5747 5747 5747 5747 5747 5747 5747 5747 5746 5746 5746 5746 5745 5745 5745 5745 5744 5744 5744 5743 5743 5743 5743
5738 5739 5739 5739 5739 5739 5739 5739 5739 5740 5740 5740 5741 5741 5742 5742 5743 5743 5743 5742 5741 5741 5740 5740 5740 5740 5740 5740 5741 5742 5742 5742 5742 5743 5743 5743 5743 5744 5744 5744 5744 5744 5744 5744 5743 5743 5743 5743 5743 5743 5743 5743 5743 5743 5742 5742 5742 5742 5742 5741 5741 5741 5741 5740 5740 5740 5739 5739 5739
5734 5734 5735 5735 5735 5735 5735 5735 5736 5736 5736 5737 5737 5738 5738 5738 5738 5739 5738 5738 5738 5737 5737 5737 5736 5736 5736 5736 5737 5738 5738 5739 5738 5739 5739 5739 5739 5740 5740 5740 5740 5740 5740 5740 5739 5739 5739 5739 5739 5738 5738 5738 5738 5738 5738 5738 5738 5738 5738 5737 5737 5737 5737 5736 5736 5736 5736 5735 5735
5731 5731 5731 5731 5731 5731 5732 5732 5732 5732 5733 5733 5734 5734 5734 5734 5734 5734 5734 5734 5734 5733 5733 5733 5733 5732 5733 5733 5733 5734 5735 5736 5736 5735 5735 5735 5735 5735 5735 5736 5736 5736 5735 5735 5735 5735 5735 5735 5735 5735 5734 5734 5734 5734 5734 5734 5733 5733 5733 5733 5733 5733 5733 5733 5732 5732 5732 5731 5731
5728 5727 5727 5727 5727 5728 5728 5728 5728 5728 5729 5729 5730 5730 5730 5730 5730 5730 5730 5730 5730 5729 5729 5728 5728 5728 5729 5730 5730 5730 5731 5731 5731 5731 5731 5731 5731 5731 5731 5731 5731 5731 5731 5731 5731 5731 5731 5731 5731 5731 5731 5731 5730 5730 5730 5730 5730 5730 5729 5729 5729 5729 5729 5728 5728 5728 5728 5727 5726
5725 5724 5724 5724 5724 5724 5724 5724 5724 5725 5725 5725 5726 5726 5727 5727 5727 5727 5727 5726 5726 5726 5725 5725 5724 5724 5724 5725 5725 5725 5726 5726 5727 5727 5727 5727 5727 5727 5727 5727 5727 5727 5726 5726 5727 5727 5726 5726 5726 5726 5726 5726 5726 5726 5726 5726 5726 5726 5725 5725 5725 5725 5725 5724 5724 5724 5723 5723 5722
5721 5721 5721 5721 5720 5720 5720 5721 5721 5721 5721 5721 5722 5722 5722 5723 5723 5723 5723 5723 5723 5723 5722 5721 5721 5720 5720 5719 5719 5719 5720 5720 5721 5722 5722 5722 5722 5722 5722 5722 5722 5722 5722 5722 5722 5722 5722 5722 5722 5722 5722 5722 5722 5722 5722 5722 5722 5722 5721 5721 5721 5721 5720 5720 5720 5719 5719 5718 5718
5718 5718 5717 5717 5717 5717 5717 5717 5717 5717 5717 5717 5717 5718 5718 5718 5718 5719 5719 5719 5719 5719 5718 5718 5718 5717 5717 5716 5715 5715 5715 5715 5715 5716 5717 5717 5717 5718 5718 5718 5717 5717 5718 5718 5718 5718 5718 5718 5718 5718 5718 5718 5718 5718 5718 5717 5717 5717 5717 5717 5717 5717 5716 5716 5716 5715 5715 5715 5714
5714 5714 5713 5713 5713 5713 5713 5713 5713 5713 5713 5713 5713 5713 5713 5714 5714 5714 5715 5715 5715 5715 5714 5714 5714 5714 5713 5713 5713 5712 5712 5712 5711 5711 5711 5712 5712 5712 5713 5713 5713 5713 5713 5713 5713 5713 5713 5713 5713 5713 5713 5713 5713 5713 5713 5713 5713 5713 5713 5713 5713 5713 5712 5712 5712 5712 5711 5711 5710
5710 5710 5709 5709 5709 5709 5709 5709 5708 5708 5709 5709 5709 5709 5709 5709 5710 5710 5710 5711 5711 5710 5710 5710 5710 5710 5709 5709 5709 5709 5708 5708 5708 5708 5708 5708 5708 5708 5708 5708 5708 5708 5708 5708 5708 5708 5708 5708 5708 5708 5709 5709 5709 5709 5709 5709 5709 5709 5709 5709 5709 5709 5708 5708 5708 5708 5708 5707 5707
5706 5705 5705 5705 5705 5705 5705 5705 5704 5704 5705 5705 5705 5705 5705 5706 5706 5706 5706 5706 5706 5706 5706 5706 5706 5706 5705 5705 5705 5705 5705 5705 5705 5704 5704 5704 5704 5704 5704 5704 5703 5703 5704 5704 5704 5704 5704 5704 5704 5705 5705 5705 5705 5705 5705 5705 5705 5705 5705 5705 5705 5705 5705 5705 5704 5704 5704 5704 5703
5702 5701 5701 5701 5701 5701 5700 5700 5700 5700 5701 5701 5701 5701 5701 5702 5702 5702 5702 5702 5702 5702 5702 5702 5702 5702 5702 5702 5701 5701 5701 5701 5701 5701 5701 5701 5701 5701 5701 5700 5700 5700 5700 5700 5701 5701 5701 5701 5701 5701 5702 5702 5702 5702 5702 5702 5702 5702 5702 5702 5702 5702 5701 5701 5701 5700 5700 5700 5700
5698 5697 5697 5697 5697 5696 5696 5696 5696 5696 5697 5697 5697 5697 5697 5698 5698 5698 5698 5698 5698 5698 5698 5698 5698 5698 5698 5698 5697 5697 5697 5697 5697 5697 5697 5697 5697 5697 5697 5697 5697 5697 5697 5697 5698 5698 5698 5698 5698 5698 5698 5698 5698 5698 5698 5698 5698 5698 5698 5698 5698 5698 5698 5697 5697 5697 5696 5696 5696
5694 5693 5693 5693 5693 5692 5692 5692 5692 5692 5693 5693 5693 5693 5693 5693 5693 5693 5693 5693 5693 5694 5694 5694 5694 5694 5694 5693 5693 5693 5693 5693 5693 5693 5693 5693 5693 5693 5693 5694 5694 5694 5694 5694 5694 5694 5694 5694 5695 5695 5695 5695 5695 5695 5695 5695 5695 5694 5694 5694 5694 5694 5694 5693 5693 5693 5693 5692 5692
5690 5690 5689 5689 5689 5689 5689 5688 5689 5689 5689 5689 5689 5689 5689 5689 5689 5689 5689 5689 5689 5689 5689 5689 5689 5689 5689 5689 5689 5689 5689 5689 5689 5688 5688 5689 5689 5689 5690 5690 5690 5690 5690 5691 5691 5691 5691 5691 5691 5691 5692 5692 5692 5691 5691 5691 5691 5691 5690 5690 5690 5690 5690 5689 5689 5689 5688 5688 5688
5686 5686 5685 5685 5685 5685 5685 5685 5685 5685 5685 5685 5685 5685 5685 5685 5685 5685 5685 5685 5685 5685 5685 5685 5685 5685 5685 5685 5685 5685 5685 5685 5685 5685 5684 5684 5685 5685 5685 5686 5686 5686 5686 5687 5687 5687 5687 5687 5688 5688 5688 5688 5688 5688 5688 5687 5687 5687 5687 5686 5686 5686 5686 5686 5685 5685 5685 5684 5684
5682 5682 5682 5682 5682 5682 5682 5682 5682 5682 5682 5682 5682 5682 5682 5681 5681 5681 5681 5681 5681 5681 5682 5682 5681 5681 5681 5681 5681 5681 5681 5681 5681 5681 5681 5681 5681 5681 5681 5682 5682 5682 5682 5683 5683 5683 5683 5683 5684 5684 5684 5684 5684 5684 5684 5683 5683 5683 5683 5683 5683 5682 5682 5682 5682 5682 5681 5681 5681
5678 5678 5678 5678 5678 5678 5678 5678 5678 5678 5678 5678 5678 5678 5678 5678 5678 5678 5678 5678 5678 5678 5678 5678 5678 5678 5678 5678 5678 5678 5678 5677 5678 5678 5677 5677 5677 5678 5678 5678 5678 5679 5679 5679 5679 5680 5680 5680 5680 5680 5680 5680 5680 5680 5680 5680 5680 5680 5679 5679 5679 5679 5678 5678 5678 5678 5678 5677 5677
5674 5674 5674 5674 5674 5674 5674 5674 5674 5674 5674 5674 5674 5674 5674 5674 5673 5673 5673 5674 5674 5674 5674 5674 5674 5674 5674 5674 5674 5674 5674 5674 5674 5674 5674 5674 5674 5674 5675 5675 5675 5676 5676 5676 5676 5676 5677 5677 5676 5676 5677 5677 5677 5676 5676 5676 5676 5676 5676 5676 5675 5675 5675 5674 5674 5674 5673 5673 5673
5670 5670 5670 5670 5670 5670 5670 5670 5670 5670 5670 5670 5670 5670 5670 5670 5670 5670 5670 5670 5670 5670 5670 5670 5670 5670 5670 5671 5671 5671 5671 5671 5671 5671 5671 5671 5671 5671 5672 5672 5672 5673 5673 5673 5673 5673 5673 5673 5673 5673 5673 5673 5673 5673 5673 5673 5673 5673 5673 5672 5672 5671 5671 5671 5670 5670 5670 5669 5669
5666 5666 5666 5666 5666 5666 5666 5666 5666 5666 5666 5666 5666 5666 5666 5666 5666 5666 5666 5666 5666 5666 5666 5666 5667 5667 5667 5667 5667 5667 5668 5668 5668 5668 5668 5668 5668 5668 5668 5669 5669 5669 5669 5669 5669 5669 5669 5669 5669 5669 5669 5669 5669 5669 5669 5669 5669 5669 5668 5668 5668 5668 5667 5667 5666 5666 5666 5665 5665
5662 5662 5662 5662 5662 5662 5662 5662 5662 5661 5661 5661 5662 5662 5662 5662 5662 5662 5662 5663 5663 5663 5663 5663 5663 5663 5663 5664 5664 5664 5664 5664 5664 5664 5665 5665 5665 5665 5665 5666 5666 5666 5666 5666 5666 5666 5666 5666 5666 5666 5666 5666 5666 5666 5665 5665 5665 5665 5665 5664 5664 5664 5663 5663 5663 5662 5662 5662 5662
5658 5658 5658 5658 5658 5658 5658 5658 5658 5658 5657 5657 5657 5658 5658 5658 5658 5658 5658 5658 5658 5658 5659 5659 5659 5659 5660 5660 5660 5660 5660 5660 5661 5661 5661 5661 5662 5662 5662 5662 5662 5662 5662 5662 5662 5662 5662 5662 5662 5662 5662 5662 5662 5662 5662 5662 5661 5661 5661 5661 5660 5660 5660 5660 5659 5659 5658 5658 5658
5653 5653 5653 5653 5654 5654 5653 5653 5653 5653 5653 5653 5653 5653 5654 5654 5654 5654 5655 5655 5655 5655 5655 5655 5655 5656 5656 5656 5656 5656 5656 5657 5657 5657 5658 5658 5658 5658 5658 5658 5658 5658 5659 5659 5659 5658 5658 5658 5658 5658 5658 5658 5658 5658 5658 5658 5658 5657 5657 5657 5657 5656 5656 5656 5655 5655 5655 5655 5654
5648 5648 5649 5649 5649 5649 5649 5649 5649 5649 5649 5649 5649 5650 5650 5650 5650 5651 5651 5651 5651 5651 5651 5651 5651 5652 5652 5653 5653 5653 5653 5653 5653 5653 5654 5654 5654 5654 5654 5655 5655 5655 5655 5655 5655 5655 5655 5654 5654 5654 5655 5655 5655 5654 5654 5654 5654 5653 5653 5653 5653 5653 5652 5652 5652 5652 5651 5651 5651
5643 5643 5644 5644 5645 5645 5645 5645 5645 5645 5645 5645 5645 5646 5646 5646 5646 5647 5647 5647 5647 5647 5647 5647 5648 5648 5648 5648 5648 5649 5649 5649 5649 5650 5650 5650 5650 5651 5651 5651 5651 5651 5651 5651 5651 5651 5651 5651 5651 5651 5651 5651 5651 5651 5650 5650 5650 5650 5649 5649 5649 5649 5649 5648 5648 5648 5648 5648 5647
5638 5638 5638 5639 5639 5639 5640 5640 5640 5640 5640 5641 5641 5641 5642 5642 5642 5642 5642 5642 5643 5643 5643 5643 5644 5644 5644 5644 5645 5645 5645 5645 5646 5646 5646 5647 5647 5647 5647 5647 5647 5648 5648 5648 5648 5647 5647 5647 5647 5647 5647 5647 5647 5647 5647 5646 5646 5646 5646 5646 5645 5645 5645 5645 5645 5644 5644 5644 5643
5632 5633 5633 5633 5633 5634 5634 5634 5635 5635 5636 5636 5637 5637 5637 5637 5637 5638 5638 5638 5638 5638 5639 5639 5640 5640 5640 5641 5641 5641 5641 5642 5642 5642 5643 5643 5643 5643 5643 5643 5643 5644 5644 5644 5644 5643 5643 5643 5643 5643 5643 5643 5643 5643 5643 5643 5643 5642 5642 5642 5642 5642 5641 5641 5641 5641 5640 5640 5640
5627 5627 5627 5628 5628 5628 5628 5629 5629 5630 5631 5631 5632 5632 5632 5632 5633 5633 5633 5633 5633 5634 5634 5635 5636 5636 5636 5637 5637 5638 5638 5638 5638 5638 5639 5639 5639 5639 5639 5639 5640 5640 5640 5640 5640 5639 5639 5639 5639 5639 5639 5639 5639 5639 5639 5639 5638 5638 5638 5638 5638 5638 5638 5638 5637 5637 5637 5637 5636
5621 5621 5622 5622 5622 5623 5623 5623 5624 5625 5626 5626 5627 5627 5627 5627 5628 5628 5628 5628 5629 5629 5630 5631 5631 5632 5632 5633 5633 5633 5633 5634 5634 5634 5635 5635 5636 5636 5636 5636 5636 5636 5636 5636 5636 5635 5635 5635 5635 5635 5635 5635 5635 5635 5635 5635 5635 5635 5634 5634 5634 5634 5634 5634 5634 5633 5633 5633 5632
5615 5615 5616 5616 5616 5617 5617 5618 5619 5619 5620 5621 5621 5622 5622 5622 5623 5623 5623 5624 5624 5625 5626 5626 5627 5627 5628 5628 5629 5629 5629 5630 5630 5631 5631 5632 5632 5632 5632 5632 5632 5632 5633 5633 5632 5632 5631 5631 5632 5632 5632 5632 5631 5631 5631 5631 5631 5631 5631 5631 5631 5631 5630 5630 5630 5630 5629 5629 5628
5609 5609 5610 5610 5610 5611 5612 5612 5613 5614 5615 5615 5616 5616 5616 5617 5617 5618 5618 5619 5620 5621 5621 5622 5622 5623 5623 5624 5624 5625 5625 5626 5626 5627 5627 5628 5628 5628 5628 5628 5628 5628 5628 5628 5628 5628 5628 5628 5628 5628 5628 5628 5628 5627 5627 5627 5627 5627 5627 5627 5627 5627 5627 5627 5626 5626 5625 5625 5624
5603 5603 5603 5604 5604 5605 5606 5607 5608 5608 5609 5609 5610 5610 5611 5612 5612 5613 5613 5614 5615 5616 5616 5617 5618 5618 5619 5619 5620 5620 5621 5622 5622 5623 5623 5623 5623 5623 5623 5623 5624 5624 5624 5624 5624 5623 5623 5623 5624 5624 5624 5624 5623 5623 5623 5623 5623 5623 5623 5623 5623 5623 5623 5623 5622 5622 5621 5621 5621
5597 5598 5598 5598 5598 5599 5600 5601 5602 5603 5603 5604 5604 5605 5606 5607 5607 5608 5608 5609 5610 5611 5612 5613 5613 5614 5614 5615 5615 5616 5617 5618 5618 5618 5618 5619 5619 5619 5619 5619 5620 5620 5620 5620 5620 5620 5619 5620 5620 5620 5620 5620 5620 5620 5620 5620 5619 5619 5619 5620 5619 5619 5619 5619 5618 5618 5618 5617 5617
5591 5591 5592 5592 5592 5593 5594 5595 5596 5597 5598 5598 5599 5600 5601 5601 5602 5603 5603 5604 5605 5606 5607 5608 5608 5609 5609 5610 5611 5612 5612 5613 5613 5614 5614 5614 5614 5615 5615 5615 5615 5616 5616 5616 5616 5616 5616 5616 5616 5616 5616 5616 5616 5616 5616 5616 5616 5616 5616 5616 5616 5616 5615 5615 5615 5614 5614 5613 5613
5585 5585 5586 5586 5586 5587 5588 5589 5590 5591 5592 5593 5594 5594 5595 5596 5597 5598 5598 5599 5600 5601 5602 5603 5603 5604 5605 5606 5607 5607 5608 5608 5609 5609 5610 5610 5610 5611 5611 5611 5611 5612 5612 5612 5612 5612 5612 5612 5612 5612 5612 5612 5612 5612 5612 5612 5612 5612 5612 5612 5612 5612 5611 5611 5611 5610 5610 5610 5609
5578 5579 5579 5580 5580 5581 5582 5583 5584 5585 5586 5588 5588 5589 5590 5591 5592 5593 5593 5594 5595 5596 5597 5598 5598 5599 5600 5601 5602 5603 5603 5604 5604 5605 5605 5606 5606 5606 5607 5607 5607 5608 5608 5608 5608 5608 5608 5608 5608 5608 5608 5608 5608 5608 5608 5608 5608 5608 5608 5608 5608 5608 5608 5607 5607 5607 5607 5606 5606